CUTE-1 (CO-55) 1 27844U 03031E 25354.24784514 .00000277 00000+0 13915-3 0 9993 2 27844 98.6762 0.0540 0009386 351.8021 8.3003 14.24185337166207 CUBESAT XI-IV (CO-57) 1 27848U 03031J 25354.49916766 .00000215 00000+0 11361-3 0 9995 2 27848 98.6791 0.1579 0009608 9.1772 350.9580 14.23492587165953 CUBESAT XI-V 1 28895U 05043F 25354.39523295 .00001241 00000+0 20608-3 0 9997 2 28895 98.2729 141.6027 0015147 55.4537 304.8096 14.71925921 75440 CUTE-1.7+APD II (CO-65) 1 32785U 08021C 25351.68477250 .00005656 00000+0 38073-3 0 9996 2 32785 97.8081 324.8433 0007829 290.5969 69.4418 15.07103756957832 CANX-2 1 32790U 08021H 25354.81853596 .00003661 00000+0 27055-3 0 9993 2 32790 97.8431 326.5679 0009555 290.0601 69.9595 15.03834461957981 SEEDS II (CO-66) 1 32791U 08021J 25354.44742117 .00012252 00000+0 48644-3 0 9992 2 32791 97.7443 339.8589 0002236 171.9570 188.1704 15.25493197959970 SWISSCUBE 1 35932U 09051B 25354.64161194 .00000889 00000+0 18714-3 0 9996 2 35932 98.4147 254.3640 0007948 53.3074 306.8855 14.61977830863065 BEESAT-1 1 35933U 09051C 25354.28828920 .00000795 00000+0 17097-3 0 9993 2 35933 98.4077 254.0013 0006504 67.0346 293.1540 14.61294785863059 ITUPSAT1 1 35935U 09051E 25354.67251551 .00000678 00000+0 15127-3 0 9990 2 35935 98.4167 253.7630 0008752 73.8851 286.3311 14.60048936862687 TISAT 1 1 36799U 10035E 25354.78975602 .00011683 00000+0 48926-3 0 9996 2 36799 98.0614 281.7727 0004123 116.0164 244.1496 15.23718169840462 AEROCUBE 4.5A 1 38767U 12048K 25354.11251983 .00038056 00000+0 63365-3 0 9992 2 38767 64.6429 294.2383 0065409 229.5057 130.0373 15.49377576344618 STRAND-1 1 39090U 13009E 25354.74659385 .00000242 00000+0 96043-4 0 9993 2 39090 98.3822 174.4328 0009489 49.3654 310.8356 14.37011213671435 BRITE-AUSTRIA 1 39091U 13009F 25354.47609889 .00000151 00000+0 66124-4 0 9994 2 39091 98.3887 173.3971 0011159 57.4179 302.8083 14.36439927671396 NEE-01 PEGASO 1 39151U 13018B 25352.85952132 .00002999 00000+0 29844-3 0 9992 2 39151 98.0962 126.5107 0013680 42.4136 317.8137 14.92388794683793 POPACS 1 1 39268U 13055D 25352.03618346 .00218872 15221-4 59136-3 0 9990 2 39268 80.9527 204.6657 0108876 27.1470 333.5427 15.84713577644416 POPACS 2 1 39269U 13055E 25354.45206930 .00016874 00000+0 30412-3 0 9999 2 39269 80.9930 347.8035 0446928 45.5980 318.0917 14.83693510636637 POPACS 3 1 39270U 13055F 25354.62037625 .00008610 00000+0 21366-3 0 9990 2 39270 81.0044 62.2400 0566717 252.3254 101.5322 14.51996668612603 ZACUBE-1 (TSHEPISOSAT) 1 39417U 13066B 25351.39749824 .00003280 00000+0 27002-3 0 9998 2 39417 97.8056 307.9496 0042001 132.1904 228.2897 14.99124350653477 WNISAT-1 1 39423U 13066H 25354.42065850 .00000563 00000+0 11098-3 0 9991 2 39423 97.6932 151.5829 0165393 75.1510 286.7944 14.57656418640687 TRITON-1 1 39427U 13066M 25354.81887888 .00001410 00000+0 17759-3 0 9993 2 39427 97.8329 263.7434 0093490 95.0870 266.1021 14.80525400647686 GOMX-1 1 39430U 13066Q 25354.80507593 .00001946 00000+0 30295-3 0 9992 2 39430 97.6582 201.4259 0129183 290.5329 68.2054 14.68621591643725 CUBEBUG-2 (LO-74) 1 39440U 13066AA 25351.56788106 .00003439 00000+0 33426-3 0 9992 2 39440 97.8708 295.2332 0058016 269.4523 90.0047 14.92015584649893 NEE-02 KRYSAOR 1 39441U 13066AB 25351.76100244 .00002517 00000+0 28598-3 0 9996 2 39441 97.8738 287.5718 0066127 305.4504 54.0549 14.85627194649256 FUNCUBE-1 (AO-73) 1 39444U 13066AE 25354.82734169 .00005148 00000+0 35024-3 0 9993 2 39444 97.8080 318.2055 0041190 89.5277 271.0669 15.06076236652780 UWE-3 1 39446U 13066AG 25354.78555617 .00002126 00000+0 19443-3 0 9999 2 39446 97.8487 305.1413 0050185 192.4697 167.5285 14.95160797650908 BRITE-CA1 (TORONTO) 1 40020U 14033L 25354.32039239 .00000937 00000+0 14910-3 0 9993 2 40020 97.9498 121.8870 0080248 129.0380 231.8006 14.72231099615893 DUCHIFAT-1 1 40021U 14033M 25354.63302552 .00025353 00000+0 61228-3 0 9992 2 40021 98.0768 27.2741 0006720 9.5760 350.5612 15.41157086628064 NANOSATC-BR1 1 40024U 14033Q 25354.53489089 .00010650 00000+0 43162-3 0 9996 2 40024 98.0885 6.8107 0005813 85.1251 275.0648 15.24846590626696 QB50P1 1 40025U 14033R 25354.54806941 .00006351 00000+0 34764-3 0 9999 2 40025 98.0961 348.6393 0010987 111.7593 248.4808 15.14584709625959 QB50P2 1 40032U 14033Y 25354.42388264 .00006044 00000+0 35640-3 0 9990 2 40032 98.0645 335.7058 0009782 68.4432 291.7838 15.11936231625628 PERSEUS-M2 1 40037U 14033AD 25354.84646808 .00001146 00000+0 11098-3 0 9991 2 40037 97.9762 297.0885 0012190 164.7950 195.3639 14.94721792624138 PERSEUS-M1 1 40039U 14033AF 25354.76372244 .00001512 00000+0 14442-3 0 9997 2 40039 97.9472 291.2763 0012052 162.5093 197.6544 14.94783500623976 POLYITAN-1 1 40042U 14033AJ 25354.48721054 .00012850 00000+0 50361-3 0 9994 2 40042 98.1070 359.7083 0010166 57.4698 302.7519 15.25884699626272 TIGRISAT 1 40043U 14033AK 25354.65716823 .00001656 00000+0 20056-3 0 9992 2 40043 97.7569 144.1475 0049155 301.1000 58.5397 14.84157384619133 AEROCUBE 6A 1 40045U 14033AM 25354.74565056 .00005667 00000+0 51077-3 0 9997 2 40045 97.7041 159.0912 0039216 252.4145 107.2791 14.95376679619925 AEROCUBE 6B 1 40046U 14033AN 25354.71325334 .00004632 00000+0 40487-3 0 9992 2 40046 97.7016 158.5067 0038402 244.9903 114.7329 14.96692447620036 CANX-4 1 40055U 14034C 25354.59200977 .00000846 00000+0 11706-3 0 9999 2 40055 98.3356 218.1041 0011921 221.4537 138.5770 14.80806841618090 CANX-5 1 40056U 14034D 25354.86274297 .00000826 00000+0 11438-3 0 9996 2 40056 98.3358 218.4185 0011922 220.7533 139.2787 14.80823364608942 UKUBE-1 1 40074U 14037F 25354.54012991 .00006139 00000+0 38368-3 0 9999 2 40074 98.4148 334.6313 0003358 65.4691 294.6885 15.09875625621564 BRITE-PL2 (HEWELIUSZ) 1 40119U 14049B 25354.77261264 .00001688 00000+0 16498-3 0 9990 2 40119 97.8998 100.6780 0013859 346.6446 13.4404 14.93687698614804 AEROCUBE 5C 1 40965U 15058B 25354.67478552 .00002612 00000+0 24026-3 0 9993 2 40965 64.7685 97.4404 0136854 133.1415 228.1237 14.90231511339046 AEROCUBE 7 1 40966U 15058C 25354.55285153 .00003275 00000+0 27528-3 0 9990 2 40966 64.7641 83.6501 0127111 132.7418 228.4479 14.94049283339259 FOX-1A (AO-85) 1 40967U 15058D 25354.66304017 .00002696 00000+0 25250-3 0 9990 2 40967 64.7758 113.2733 0134050 126.9444 234.4034 14.89721263 86960 SINOD-D 1 1 40968U 15058E 25354.68356601 .00003418 00000+0 28895-3 0 9990 2 40968 64.7763 97.2037 0122412 124.9824 236.2856 14.94166583 89974 SNAP-3 ALICE 1 40970U 15058G 25354.41805586 .00026523 00000+0 77032-3 0 9994 2 40970 64.7607 348.6252 0043734 115.9353 244.6298 15.34463745 89251 LMRST-SAT 1 40971U 15058H 25354.70845431 .00002529 00000+0 23865-3 0 9995 2 40971 64.7760 109.1446 0136466 128.7501 232.5900 14.89372801 86961 SNAP-3 EDDIE 1 40972U 15058J 25354.39654837 .00027354 00000+0 77154-3 0 9992 2 40972 64.7530 340.5309 0046748 120.1083 240.4697 15.35222758 91379 PROPCUBE 3 1 40973U 15058K 25354.69827676 .00002938 00000+0 25558-3 0 9991 2 40973 64.7698 89.5943 0129543 130.7620 230.4823 14.92763799 88146 BISONSAT 1 40974U 15058L 25354.48248133 .00006912 00000+0 38372-3 0 9998 2 40974 64.7621 29.4002 0085920 125.8944 235.0193 15.11392197 88565 SNAP-3 JIMI 1 40975U 15058M 25354.51890597 .00003854 00000+0 28465-3 0 9994 2 40975 64.7669 64.0863 0111854 128.8781 232.2379 14.99905132 87407 PROPCUBE 1 (FLORA) 1 40976U 15058N 25354.83817374 .00002721 00000+0 26489-3 0 9998 2 40976 64.7747 127.5135 0135858 130.8587 230.4393 14.88041945 89712 SINOD-D 3 1 40977U 15058P 25354.49257324 .00003833 00000+0 33620-3 0 9994 2 40977 64.7733 113.1613 0124418 129.6418 231.5754 14.92376888 88072 HORYU-4 1 41340U 16012D 25354.01968620 .00034530 00000+0 56476-3 0 9998 2 41340 30.9939 259.9732 0006824 304.4738 55.5266 15.51230224542682 RAVAN 1 41849U 16067B 25354.58418150 .00019943 00000+0 50523-3 0 9990 2 41849 98.0161 220.4657 0005697 280.1871 79.8730 15.39759212500084 CELTEE 1 1 41850U 16067C 25354.58065218 .00004095 00000+0 20907-3 0 9990 2 41850 98.0866 203.9720 0002182 100.1151 260.0327 15.17340845498775 OPTICUBE 04 1 41851U 16067D 25354.06496071 .00001550 00000+0 10342-3 0 9994 2 41851 98.0819 191.9115 0016277 8.3137 351.8356 15.08592688498158 AEROCUBE 8D 1 41852U 16067E 25354.83728972 .00005231 00000+0 23816-3 0 9998 2 41852 98.0887 206.5552 0004810 44.4572 315.7047 15.21182387498923 AEROCUBE 8C 1 41853U 16067F 25354.82282192 .00005514 00000+0 24940-3 0 9990 2 41853 98.0750 204.0126 0005190 332.1044 27.9911 15.21375627498918 CORVUS BC2 1 42846U 17042X 25354.41845844 .00003325 00000+0 23942-3 0 9990 2 42846 97.3837 158.1076 0013748 8.1064 352.0382 15.04772000460169 CORVUS BC1 1 42847U 17042Y 25354.70377329 .00002043 00000+0 14788-3 0 9995 2 42847 97.3874 159.0667 0011898 346.1142 13.9756 15.05018243460232 MAKERSAT 0 1 43016U 17073D 25354.40945116 .00014179 00000+0 47343-3 0 9996 2 43016 97.4887 231.3058 0125987 184.2204 175.7983 15.23744575439160 SIRION PATHFINDER-2 1 43759U 18099B 25354.68517046 .00004219 00000+0 24639-3 0 9993 2 43759 97.4531 42.9710 0008867 188.1897 171.9190 15.12415917385621 CORVUS BC4 1 43767U 18099K 25354.66177454 .00003456 00000+0 21281-3 0 9997 2 43767 97.4343 37.8209 0007109 254.2965 105.7481 15.10622184385437 SPACEBEE-7 1 43816U 18099BL 25354.73812814 .00073082 00000+0 89966-3 0 9992 2 43816 97.4702 70.8151 0002905 137.2065 222.9418 15.59993820386775 SHIELDS 1 1 43850U 18104B 25354.75471668 .00107424 00000+0 40893-3 0 9991 2 43850 85.0060 257.8583 0008181 90.3681 269.8533 15.87217104391920 M2 PATHFINDER 1 45727U 20037E 25354.76665668 .00001459 00000+0 11140-3 0 9994 2 45727 97.8126 179.0780 0013209 42.0700 318.1537 15.03542416298671 NETSAT-4 1 46504U 20068U 25354.51028281 .00011181 00000+0 31120-3 0 9992 2 46504 97.8592 344.3347 0004519 225.8780 134.2092 15.37001872288261 NETSAT-3 1 46505U 20068V 25354.49463358 .00011620 00000+0 33838-3 0 9994 2 46505 97.8617 342.8217 0004006 249.6131 110.4681 15.35574927288190 NETSAT-1 1 46506U 20068W 25354.45234472 .00009700 00000+0 34411-3 0 9998 2 46506 97.8669 338.9990 0003829 278.5785 81.5020 15.29293281287930 NETSAT-2 1 46507U 20068X 25354.70244823 .00013330 00000+0 36422-3 0 9996 2 46507 97.8604 344.0226 0002380 273.7263 86.3708 15.37533222288230 WILDTRACKCUBE-SIMBA 1 47941U 21022K 25354.82826297 .00071645 00000+0 63363-3 0 9991 2 47941 97.4061 265.9407 0004570 5.8549 354.2765 15.68414649263353 GREENCUBE (IO-117) 1 53109U 22080E 25354.35803142 -.00000003 00000+0 00000+0 0 9997 2 53109 70.1582 0.4316 0009105 326.3795 33.6286 6.42583282 80575 SITRO-AIS 5 (KATYS) 1 57176U 23091L 25354.59234521 .00007922 00000+0 32297-3 0 9996 2 57176 97.5335 52.1487 0012951 18.5374 341.6332 15.24650829137086 SITRO-AIS 6 (CHIRKIN) 1 57192U 23091AC 25354.58195156 .00004601 00000+0 19796-3 0 9993 2 57192 97.5337 51.9877 0013033 21.1331 339.0441 15.23065633137074 SITRO-AIS 8 (ANOKHIN) 1 57193U 23091AD 25354.61769397 .00008688 00000+0 33410-3 0 9990 2 57193 97.5330 53.1418 0012157 16.5343 343.6289 15.26584794137157 SITRO-AIS 7 (FARTUSHNIY) 1 57194U 23091AE 25354.62075572 .00004435 00000+0 19209-3 0 9993 2 57194 97.5337 51.9247 0012945 21.6844 338.4938 15.22858283137076 SITRO-AIS 10 (BURDAEV) 1 57199U 23091AK 25354.63770372 .00011417 00000+0 38164-3 0 9998 2 57199 97.5346 56.6588 0007779 359.0462 1.0762 15.31142827137375 SITRO-AIS 9 (SHCHUKIN) 1 57201U 23091AM 25354.61854403 .00011197 00000+0 37782-3 0 9998 2 57201 97.5345 56.4806 0007783 359.4055 0.7175 15.30845945137369 SITRO-AIS 12 (SMIRENNIY) 1 57204U 23091AQ 25354.63901985 .00011247 00000+0 37687-3 0 9991 2 57204 97.5355 56.8711 0007531 352.7587 7.3543 15.31069746137381 SITRO-AIS 11 (SHEFFER) 1 57208U 23091AU 25354.62811188 .00011108 00000+0 36910-3 0 9993 2 57208 97.5354 57.0142 0007430 352.5206 7.5923 15.31346630137394 SITRO-AIS 25 1 59066U 24039R 25354.85694850 .00004545 00000+0 36996-3 0 9991 2 59066 95.3961 112.6510 0148380 230.5002 128.3026 14.91515114 98127 SITRO-AIS 26 1 59067U 24039S 25354.83588549 .00004081 00000+0 33389-3 0 9995 2 59067 95.3966 112.5673 0148534 230.9585 127.8343 14.91344205 98119 SITRO-AIS 27 1 59068U 24039T 25354.85351329 .00004332 00000+0 35140-3 0 9998 2 59068 95.3964 112.7742 0147810 229.8976 128.9218 14.91714395 98130 SITRO-AIS 28 1 59071U 24039U 25354.76812303 .00004597 00000+0 37252-3 0 9995 2 59071 95.3969 112.7533 0147549 230.0433 128.7755 14.91761152 98124 GRBBETA 1 60237U 24128C 25354.52599808 .00003313 00000+0 24054-3 0 9997 2 60237 61.9903 122.3150 0056007 98.1055 262.6396 15.04828816 79360 OOV-CUBE (TUBSAT-30) 1 60240U 24128F 25354.40463111 .00002093 00000+0 17083-3 0 9993 2 60240 61.9945 128.5024 0058279 95.8101 264.9638 15.01652648 79254 ROBUSTA-3A (MEDITERRAN*) 1 60243U 24128J 25354.82089053 .00005751 00000+0 36940-3 0 9998 2 60243 61.9869 117.5374 0055799 92.4549 268.2934 15.08334321 79484 LASARSAT 1 62391U 24247Q 25353.57200316 .00016157 00000+0 47716-3 0 9999 2 62391 44.9754 182.9066 0002823 191.3492 168.7331 15.34831435 55615 CROCUBE 1 62394U 24247T 25353.51888728 .00018330 00000+0 52809-3 0 9999 2 62394 44.9731 182.4488 0004247 186.3510 173.7322 15.35523992 55616